Weather History for Grand Forks, ND

Change the Weather History Date:

Saturday, July 6, 2013

  Actual Average Record
Temperature  
Mean Temperature 76 °F 68 °F  
Max Temperature 86 °F 80 °F 97 °F (1988)
Min Temperature 66 °F 56 °F 42 °F (1942)
Degree Days  
Heating Degree Days 0 1  
Month to date heating degree days 0 7  
Since 1 June heating degree days 77 110  
Since 1 July heating degree days 0 7  
Cooling Degree Days 11 4  
Month to date cooling degree days 59 24  
Year to date cooling degree days 181 116  
Since 1 June cooling degree days 172 99  
Growing Degree Days 25 (Base 50)    
Moisture  
Dew Point 66 °F    
Average Humidity 75    
Maximum Humidity 90    
Minimum Humidity 59    
Precipitation  
Precipitation 0.10 in 0.12 in 2.10 in (1954)
Month to date precipitation 0.10 0.72  
Year to date precipitation 11.37 9.92  
Snow  
Snow 0.00 in 0.00 in - ()
Month to date snowfall 0.0 0.0  
Since 1 June snowfall 0.0 0.0  
Since 1 July snowfall 0.0 0.0  
Snow Depth 0.00 in    
Sea Level Pressure  
Sea Level Pressure 29.74 in    
Wind  
Wind Speed 7 mph (ESE)    
Max Wind Speed 21 mph    
Max Gust Speed 25 mph    
Visibility 9 miles    
Events Rain    
T = Trace of Precipitation, MM = Missing Value Source: NWS Daily Summary

Daily Weather History Graph

Daily Weather History Graph

Search for Another Location

Airport:

Trip Planner

Search our weather history database for the weather conditions in past years. The results will help you decide how hot, cold, wet, or windy it might be!

Date:

Astronomy

Jul. 06, 2013 Rise Set
Actual Time 5:37 AM CDT 9:29 PM CDT
Civil Twilight 4:56 AM CDT 10:09 PM CDT
Nautical Twilight 4:01 AM CDT 11:04 PM CDT
Astronomical Twilight 2:36 AM CDT 12:28 AM CDT
Moon 4:28 AM CDT (7/6) 8:07 PM CDT (7/6)
Length of Visible Light 17h 12m
Length of Day
15h 52m
Waning Crescent, 2% of the Moon is Illuminated
Jul 6
Waning Crescent
Jul 8
New
Jul 15
First Quarter
Jul 22
Full
Jul 29
Last Quarter

Hourly Weather History & Observations

Time (CDT) Temp. Heat Index Dew Point Humidity Pressure Visibility Wind Dir Wind Speed Gust Speed Precip Events Conditions
12:53 AM 68.0 °F - 62.1 °F 81% 29.73 in 10.0 mi Calm Calm - N/A   Partly Cloudy
1:53 AM 69.1 °F - 61.0 °F 75% 29.74 in 10.0 mi NNW 5.8 mph - N/A   Scattered Clouds
2:53 AM 71.1 °F - 60.1 °F 68% 29.73 in 9.0 mi ESE 3.5 mph - N/A   Mostly Cloudy
3:53 AM 70.0 °F - 62.1 °F 76% 29.72 in 9.0 mi SSE 3.5 mph - 0.00 in   Mostly Cloudy
4:53 AM 66.0 °F - 63.0 °F 90% 29.72 in 8.0 mi North 3.5 mph - 0.02 in Rain Light Rain
5:53 AM 68.0 °F - 62.1 °F 81% 29.72 in 7.0 mi NE 8.1 mph - 0.00 in Rain Light Rain
6:53 AM 66.9 °F - 61.0 °F 81% 29.72 in 7.0 mi NE 11.5 mph - 0.07 in   Overcast
7:53 AM 66.9 °F - 63.0 °F 87% 29.73 in 7.0 mi Calm Calm - N/A   Overcast
8:53 AM 68.0 °F - 64.0 °F 87% 29.72 in 7.0 mi NE 11.5 mph - 0.01 in   Overcast
9:53 AM 71.1 °F - 66.0 °F 84% 29.74 in 7.0 mi North 6.9 mph - N/A   Mostly Cloudy
10:53 AM 73.9 °F - 66.9 °F 79% 29.74 in 10.0 mi East 10.4 mph - N/A   Overcast
11:53 AM 78.1 °F - 66.9 °F 68% 29.74 in 10.0 mi ESE 12.7 mph - N/A   Mostly Cloudy
12:53 PM 78.1 °F - 66.9 °F 68% 29.74 in 10.0 mi ESE 10.4 mph - N/A   Overcast
1:53 PM 79.0 °F - 66.9 °F 66% 29.74 in 10.0 mi SE 9.2 mph - N/A   Mostly Cloudy
2:53 PM 81.0 °F 83.8 °F 68.0 °F 65% 29.74 in 10.0 mi Calm Calm - N/A   Mostly Cloudy
3:53 PM 84.9 °F 88.2 °F 68.0 °F 57% 29.74 in 10.0 mi Calm Calm - N/A   Mostly Cloudy
4:53 PM 82.9 °F 85.8 °F 68.0 °F 60% 29.74 in 10.0 mi East 3.5 mph - N/A   Mostly Cloudy
5:53 PM 77.0 °F - 66.0 °F 69% 29.75 in 10.0 mi SSE 11.5 mph - N/A   Mostly Cloudy
6:53 PM 77.0 °F - 68.0 °F 74% 29.75 in 10.0 mi South 15.0 mph - N/A   Mostly Cloudy
7:53 PM 75.0 °F - 70.0 °F 84% 29.74 in 10.0 mi South 8.1 mph - N/A   Scattered Clouds
8:53 PM 75.0 °F - 70.0 °F 84% 29.75 in 10.0 mi SSE 5.8 mph - N/A   Scattered Clouds
9:53 PM 73.9 °F - 69.1 °F 85% 29.75 in 10.0 mi ESE 4.6 mph - N/A   Scattered Clouds
10:53 PM 72.0 °F - 68.0 °F 87% 29.76 in 10.0 mi SE 5.8 mph - N/A   Scattered Clouds
11:53 PM 71.1 °F - 68.0 °F 90% 29.76 in 10.0 mi SE 6.9 mph - N/A   Clear